Location: Eferding
(48.3167°N, 14.0167°E)
Time: 14:02:02
(UTC+00:00)

YAOGAN 1 - Pass Details

Date: 12 November 2019
Orbit: 619 x 621 km, 98.0° (Epoch: 09 December)

Event Time Altitude Azimuth Distance (km) Brightness Sun altitude
Rises 17:32:30 0° 169° (S) 2,886 5.9 -20.5°
Reaches altitude 10° 17:34:41 10° 171° (S) 1,984 5.1 -20.8°
Maximum altitude 17:39:00 75° 257° (WSW) 648 2.7 -21.5°
Drops below altitude 10° 17:43:21 10° 343° (NNW) 2,000 5.3 -22.3°
Sets 17:45:33 0° 345° (NNW) 2,910 6.2 -22.6°
